Location: Nitra
(0.0000°N, 18.0833°E)
Time: 15:28:13
(UTC+02:00)

N. Korean satellite - Pass Details

Date: 30 April 2021
Orbit: 450 x 501 km, 97.2° (Epoch: 15 May)

Event Time Altitude Azimuth Distance (km) Brightness Sun altitude
Rises 04:54:26 0° 48° (NE) 2,450 11.1 -26.6°
Reaches altitude 10° 04:58:19 10° 95° (E) 1,577 10.0 -25.7°
Maximum altitude 04:58:42 10° 101° (E) 1,568 9.9 -25.6°
Drops below altitude 10° 04:59:05 10° 108° (ESE) 1,577 9.9 -25.5°
Sets 05:02:58 0° 154° (SSE) 2,453 10.3 -24.6°
